Weather History for KNBT - April, 2013

Change the Weather History Date:

Monday, April 15, 2013

  Actual Average (KMRH) Record (KMRH)
Temperature  
Mean Temperature 67 °F -  
Max Temperature 70 °F 71 °F 80 °F (1964)
Min Temperature 64 °F 52 °F 33 °F (1950)
Cooling Degree Days 2    
Growing Degree Days 17 (Base 50)    
Moisture  
Dew Point 60 °F    
Average Humidity 80    
Maximum Humidity 96    
Minimum Humidity 68    
Precipitation  
Precipitation 0.08 in - - ()
Sea Level Pressure  
Sea Level Pressure 30.12 in    
Wind  
Wind Speed 9 mph (East)    
Max Wind Speed 18 mph    
Max Gust Speed 30 mph    
Visibility 9 miles    
Events Rain    
Averages and records for this station are not official NWS values.
T = Trace of Precipitation, MM = Missing Value Source: NWS Daily Summary

Daily Weather History Graph

Daily Weather History Graph

Search for Another Location

Airport or City:

Trip Planner

Search our weather history database for the weather conditions in past years. The results will help you decide how hot, cold, wet, or windy it might be!

Date:

Astronomy

Apr. 15, 2013 Rise Set
Actual Time 6:33 AM EDT 7:38 PM EDT
Civil Twilight 6:07 AM EDT 8:04 PM EDT
Nautical Twilight 5:36 AM EDT 8:35 PM EDT
Astronomical Twilight 5:04 AM EDT 9:07 PM EDT
Moon 10:04 AM EDT (4/15) No Moon Set
Length of Visible Light 13h 57m
Length of Day
13h 05m
Waxing Crescent, 24% of the Moon is Illuminated
Apr 15
Waxing Crescent
Apr 18
First Quarter
Apr 25
Full
May 2
Last Quarter
May 9
New

Hourly Weather History & Observations

Time (EDT) Temp. Dew Point Humidity Pressure Visibility Wind Dir Wind Speed Gust Speed Precip Events Conditions
12:56 AM 64.0 °F 60.1 °F 87% 30.12 in 10.0 mi ESE 8.1 mph - N/A   Clear
1:56 AM 64.9 °F 60.1 °F 84% 30.09 in 10.0 mi ESE 8.1 mph - N/A   Partly Cloudy
2:56 AM 64.9 °F 61.0 °F 87% 30.09 in 10.0 mi SSE 6.9 mph - N/A   Scattered Clouds
3:56 AM 64.9 °F 60.1 °F 84% 30.12 in 10.0 mi SSE 4.6 mph - 0.00 in   Overcast
4:56 AM 66.9 °F 59.0 °F 76% 30.11 in 10.0 mi Calm Calm - 0.00 in   Overcast
5:56 AM 66.0 °F 57.9 °F 75% 30.11 in 10.0 mi ESE 11.5 mph - 0.01 in Rain Light Rain
7:56 AM 64.9 °F 55.9 °F 73% 30.11 in 9.0 mi ESE 11.5 mph - 0.00 in Rain Light Rain
10:56 AM 64.9 °F 57.0 °F 75% 30.08 in 10.0 mi ESE 16.1 mph 29.9 mph 0.00 in   Mostly Cloudy
11:56 AM 68.0 °F 60.1 °F 76% 30.09 in 9.0 mi ESE 18.4 mph 23.0 mph N/A   Partly Cloudy
12:56 PM 70.0 °F 59.0 °F 68% 30.09 in 10.0 mi East 11.5 mph - N/A   Mostly Cloudy
1:20 PM 69.8 °F 60.8 °F 73% 30.08 in 8.0 mi NE 10.4 mph - N/A   Mostly Cloudy
1:51 PM 68.0 °F 60.8 °F 78% 30.08 in 8.0 mi NE 9.2 mph - N/A   Overcast
1:56 PM 69.1 °F 61.0 °F 75% 30.10 in 9.0 mi NE 10.4 mph - N/A   Overcast
2:56 PM 69.1 °F 61.0 °F 75% 30.10 in 9.0 mi NE 10.4 mph - N/A   Mostly Cloudy
3:56 PM 69.1 °F 61.0 °F 75% 30.11 in 9.0 mi NE 11.5 mph - N/A   Overcast
4:56 PM 68.0 °F 60.1 °F 76% 30.11 in 9.0 mi NE 9.2 mph - N/A   Overcast
5:56 PM 66.9 °F 61.0 °F 81% 30.13 in 10.0 mi NE 12.7 mph - N/A   Overcast
6:56 PM 66.9 °F 60.1 °F 79% 30.13 in 10.0 mi NE 13.8 mph - N/A   Overcast
7:56 PM 66.0 °F 62.1 °F 87% 30.14 in 9.0 mi ENE 13.8 mph - N/A   Overcast
10:56 PM 64.0 °F 63.0 °F 96% 30.22 in 3.0 mi ENE 5.8 mph - 0.04 in Rain Rain
11:56 PM 64.0 °F 62.1 °F 93% 30.22 in 7.0 mi ENE 6.9 mph - 0.03 in   Overcast